W4SNA-3 Weather Reports


Display with metric or nautical units.
time (UTC)temp
F
wind
direction
speed
MPH
gust
MPH
rain 1hr
in
rain 24hr
in
rain mn
in
humidity
%
barometer
mb
20260901233925 75 91 1.0 3.0 0.00 0.25 0.00 79 1020.0
20260901233427 75 91 1.0 3.0 0.00 0.25 0.00 79 1020.1
20260901232928 75 91 1.0 3.0 0.00 0.25 0.00 79 1020.1
20260901232432 75 91 1.0 3.0 0.00 0.25 0.00 79 1020.1
20260901231925 76 91 1.0 3.0 0.00 0.25 0.00 78 1020.1
20260901231426 76 91 1.0 3.0 0.00 0.25 0.00 78 1020.2
20260901230925 76 92 1.0 2.0 0.00 0.25 0.00 77 1020.2
20260901230425 76 92 1.0 2.0 0.00 0.25 0.00 78 1020.3
20260901225925 76 0 0.0 2.0 0.00 0.25 0.00 77 1020.3
20260901225425 77 0 0.0 2.0 0.00 0.25 0.00 78 1020.4
20260901224925 77 0 0.0 2.0 0.00 0.25 0.00 76 1020.4
20260901224426 77 0 0.0 2.0 0.00 0.25 0.00 76 1020.4
20260901223925 77 0 0.0 2.0 0.00 0.25 0.00 76 1020.3
20260901223425 77 0 0.0 1.0 0.00 0.25 0.00 76 1020.4
20260901222929 78 0 0.0 2.0 0.00 0.25 0.00 76 1020.4
20260901222425 78 0 0.0 2.0 0.00 0.25 0.00 75 1020.4
20260901221925 78 0 0.0 3.0 0.00 0.25 0.00 75 1020.3
20260901221432 78 0 0.0 3.0 0.00 0.25 0.00 73 1020.3
20260901220925 79 0 0.0 2.0 0.00 0.25 0.00 73 1020.3
20260901220435 79 0 0.0 2.0 0.00 0.25 0.00 71 1020.3
20260901215925 79 0 0.0 2.0 0.00 0.25 0.00 72 1020.4
20260901215432 79 0 0.0 2.0 0.00 0.25 0.00 71 1020.4
20260901214925 80 0 0.0 3.0 0.00 0.25 0.00 70 1020.4
20260901214433 80 0 0.0 3.0 0.00 0.25 0.00 69 1020.3
20260901213925 80 83 1.0 3.0 0.00 0.25 0.00 68 1020.3
20260901213425 80 84 1.0 3.0 0.00 0.25 0.00 70 1020.4
20260901212925 81 0 0.0 3.0 0.00 0.25 0.00 69 1020.2
20260901212426 81 0 0.0 2.0 0.00 0.25 0.00 68 1020.3
20260901211927 81 0 0.0 3.0 0.00 0.25 0.00 67 1020.2
20260901211426 82 0 0.0 3.0 0.00 0.25 0.00 66 1020.2
20260901210927 82 0 0.0 5.0 0.00 0.25 0.00 66 1020.2
20260901210426 83 0 0.0 5.0 0.00 0.25 0.00 65 1021.1
20260901205925 83 0 0.0 2.0 0.00 0.25 0.00 64 1021.1
20260901205433 83 0 0.0 2.0 0.00 0.25 0.00 63 1020.3
20260901204947 84 95 1.0 3.0 0.00 0.25 0.00 64 1020.3
20260901204426 84 95 1.0 3.0 0.00 0.25 0.00 64 1020.4
20260901203933 84 0 0.0 2.0 0.00 0.25 0.00 62 1021.3
20260901203435 84 98 1.0 3.0 0.00 0.25 0.00 63 1021.4
20260901202925 85 99 1.0 3.0 0.00 0.25 0.00 62 1021.4
20260901202426 85 0 0.0 2.0 0.00 0.25 0.00 62 1021.5
20260901201927 85 59 1.0 5.0 0.00 0.25 0.00 62 1021.5
20260901201426 85 59 1.0 6.0 0.00 0.25 0.00 62 1021.4
20260901200925 85 22 1.0 6.0 0.00 0.25 0.00 61 1021.3
20260901200426 86 0 0.0 3.0 0.00 0.25 0.00 62 1021.3
20260901195925 86 80 1.0 5.0 0.00 0.25 0.00 63 1021.2
20260901195425 86 0 0.0 5.0 0.00 0.25 0.00 63 1021.3
20260901194825 86 0 0.0 3.0 0.00 0.25 0.00 61 1021.3
20260901194325 86 0 0.0 4.0 0.00 0.25 0.00 64 1021.3
20260901193825 86 89 1.0 4.0 0.00 0.25 0.00 62 1021.4
20260901193325 86 351 1.0 3.0 0.00 0.25 0.00 61 1021.4
20260901192825 86 0 0.0 4.0 0.00 0.25 0.00 61 1021.4
20260901192325 86 0 0.0 4.0 0.00 0.25 0.00 61 1021.3
20260901191825 86 271 1.0 4.0 0.00 0.25 0.00 62 1021.3
20260901191325 86 279 1.0 4.0 0.00 0.25 0.00 63 1021.3
20260901190825 86 29 1.0 3.0 0.00 0.25 0.00 62 1021.5
20260901190325 86 5 1.0 3.0 0.00 0.25 0.00 63 1021.6
20260901185825 86 22 1.0 3.0 0.00 0.25 0.00 63 1021.7
20260901185325 86 32 1.0 5.0 0.00 0.25 0.00 64 1021.7
20260901184825 86 359 1.0 5.0 0.00 0.25 0.00 63 1021.7
20260901184325 86 0 0.0 3.0 0.00 0.25 0.00 64 1021.8
20260901183825 86 0 0.0 3.0 0.00 0.25 0.00 65 1021.7
20260901183326 86 0 0.0 6.0 0.00 0.25 0.00 63 1021.9
20260901182825 86 0 0.0 6.0 0.00 0.25 0.00 62 1022.0
20260901182325 86 30 1.0 5.0 0.00 0.25 0.00 62 1021.9
20260901181825 86 0 0.0 4.0 0.00 0.25 0.00 64 1021.9
20260901181325 86 0 0.0 4.0 0.00 0.25 0.00 63 1021.9
20260901180506 86 0 0.0 5.0 0.00 0.25 0.00 65 1021.9
20260901180006 86 44 1.0 5.0 0.00 0.25 0.00 66 1021.8
20260901175506 85 0 0.0 4.0 0.00 0.25 0.00 65 1021.8
20260901175006 85 24 1.0 5.0 0.00 0.25 0.00 63 1021.9
20260901174509 85 0 0.0 6.0 0.00 0.25 0.00 65 1021.9
20260901174008 85 0 0.0 6.0 0.00 0.25 0.00 66 1021.9
20260901173024 85 34 2.0 5.0 0.00 0.25 0.00 63 1022.0
20260901172612 85 74 1.0 5.0 0.00 0.25 0.00 65 1022.1
20260901172024 85 145 1.0 5.0 0.00 0.25 0.00 66 1022.2
20260901171524 85 0 0.0 7.0 0.00 0.25 0.00 68 1022.2
20260901171024 85 352 1.0 7.0 0.00 0.25 0.00 64 1022.2
20260901170455 85 8 1.0 3.0 0.00 0.25 0.00 65 1022.3
20260901165955 85 72 1.0 5.0 0.00 0.25 0.00 66 1022.4
20260901165455 85 49 1.0 5.0 0.00 0.25 0.00 64 1022.3
20260901164955 85 0 0.0 5.0 0.00 0.25 0.00 65 1022.3
20260901164455 85 65 1.0 5.0 0.00 0.25 0.00 66 1022.4
20260901163955 85 51 1.0 5.0 0.00 0.25 0.00 65 1022.6
20260901163455 85 60 1.0 5.0 0.00 0.25 0.00 64 1022.7
20260901162955 85 341 1.0 4.0 0.00 0.25 0.00 67 1022.7
20260901162455 85 22 1.0 4.0 0.00 0.25 0.00 67 1022.7
20260901161955 84 65 1.0 5.0 0.00 0.25 0.00 66 1022.7
20260901161456 84 0 0.0 5.0 0.00 0.25 0.00 64 1022.8
20260901160154 84 0 0.0 5.0 0.00 0.25 0.00 67 1022.7
20260901155637 84 78 1.0 5.0 0.00 0.25 0.00 66 1022.7
20260901155137 85 0 0.0 3.0 0.00 0.25 0.00 66 1022.9
20260901154637 85 0 0.0 4.0 0.00 0.25 0.00 70 1022.8
20260901154137 84 0 0.0 5.0 0.00 0.25 0.00 69 1021.9
20260901153651 84 109 1.0 5.0 0.00 0.25 0.00 68 1022.1
20260901153137 84 115 2.0 4.0 0.00 0.25 0.00 69 1022.0
20260901152638 83 0 0.0 2.0 0.00 0.25 0.00 71 1022.1
20260901152137 83 347 1.0 3.0 0.00 0.25 0.00 71 1022.0
20260901151637 83 0 0.0 4.0 0.00 0.25 0.00 70 1022.0
20260901151151 83 316 1.0 4.0 0.00 0.25 0.00 70 1022.0
20260901150248 83 345 2.0 5.0 0.00 0.25 0.00 71 1022.1
20260901145749 83 331 2.0 5.0 0.00 0.25 0.00 73 1022.1
20260901145248 82 329 2.0 5.0 0.00 0.25 0.00 72 1022.1
20260901144748 82 318 2.0 4.0 0.00 0.25 0.00 72 1022.2
20260901144250 82 341 2.0 5.0 0.00 0.25 0.00 73 1022.3
20260901143754 81 329 2.0 5.0 0.00 0.25 0.00 74 1022.2
20260901143248 81 321 2.0 4.0 0.00 0.25 0.00 73 1022.2
20260901142749 81 345 2.0 5.0 0.00 0.25 0.00 74 1022.3
20260901142248 80 340 2.0 5.0 0.00 0.25 0.00 74 1022.2
20260901141753 80 320 2.0 5.0 0.00 0.25 0.00 75 1022.1
20260901141248 80 319 2.0 5.0 0.00 0.25 0.00 75 1022.1
20260901140756 80 338 2.0 5.0 0.00 0.25 0.00 75 1022.1
20260901140248 79 337 2.0 5.0 0.00 0.25 0.00 77 1022.0
20260901135755 79 354 2.0 5.0 0.00 0.25 0.00 76 1022.0
20260901135006 78 293 2.0 4.0 0.00 0.25 0.00 78 1022.0
20260901134506 78 334 1.0 4.0 0.00 0.25 0.00 78 1022.0
20260901134006 78 319 1.0 4.0 0.00 0.25 0.00 79 1022.0
20260901133508 77 314 2.0 4.0 0.00 0.25 0.00 79 1022.0
20260901133006 77 334 1.0 4.0 0.00 0.25 0.00 80 1022.0
20260901132506 77 322 2.0 4.0 0.00 0.25 0.00 80 1022.0
20260901132006 76 327 2.0 4.0 0.00 0.25 0.00 81 1022.0
20260901131506 76 323 1.0 4.0 0.00 0.25 0.00 81 1022.0
20260901131006 75 328 2.0 4.0 0.00 0.25 0.00 81 1022.0
20260901130514 75 326 2.0 4.0 0.00 0.25 0.00 82 1021.9
20260901130006 75 326 1.0 4.0 0.00 0.25 0.00 82 1021.8
20260901125332 74 332 1.0 4.0 0.00 0.25 0.00 83 1021.9
20260901124831 74 339 1.0 3.0 0.00 0.25 0.00 83 1022.0
20260901124325 73 348 1.0 3.0 0.00 0.25 0.00 84 1022.0
20260901123838 73 14 1.0 3.0 0.00 0.25 0.00 85 1022.1
20260901123325 72 16 1.0 3.0 0.00 0.25 0.00 86 1022.2
20260901122825 72 16 1.0 3.0 0.00 0.25 0.00 87 1022.2
20260901122325 71 0 0.0 2.0 0.00 0.25 0.00 88 1022.2
20260901121834 70 18 1.0 3.0 0.00 0.25 0.00 89 1022.2
20260901121336 70 18 1.0 3.0 0.00 0.25 0.00 90 1022.1
20260901120831 70 21 1.0 3.0 0.00 0.25 0.00 90 1022.1
20260901120327 69 48 1.0 3.0 0.00 0.25 0.00 91 1022.0
20260901115832 69 54 1.0 3.0 0.00 0.25 0.00 91 1022.0
20260901115326 68 54 1.0 3.0 0.00 0.25 0.00 92 1021.8
20260901114844 68 0 0.0 2.0 0.00 0.25 0.00 92 1021.7
20260901114019 68 0 0.0 2.0 0.00 0.25 0.00 91 1021.6
20260901113528 68 54 1.0 3.0 0.00 0.25 0.00 91 1021.6
20260901113019 68 54 1.0 3.0 0.00 0.25 0.00 91 1021.6
20260901112519 68 54 1.0 3.0 0.00 0.25 0.00 91 1021.6
20260901112019 68 0 0.0 3.0 0.00 0.25 0.00 91 1021.5
20260901111521 68 0 0.0 0.0 0.00 0.25 0.00 91 1021.5
20260901111018 68 0 0.0 0.0 0.00 0.25 0.00 91 1021.4
20260901110520 68 0 0.0 0.0 0.00 0.25 0.00 91 1021.4
20260901110020 68 0 0.0 0.0 0.00 0.25 0.00 91 1021.3
20260901105521 68 0 0.0 0.0 0.00 0.25 0.00 91 1021.4
20260901105024 68 0 0.0 0.0 0.00 0.25 0.00 91 1021.3
20260901104520 68 0 0.0 0.0 0.00 0.25 0.00 90 1021.3
20260901104024 68 0 0.0 0.0 0.00 0.25 0.00 90 1021.3
20260901103519 68 0 0.0 0.0 0.00 0.25 0.00 90 1021.4
20260901103020 68 0 0.0 0.0 0.00 0.25 0.00 90 1021.3
20260901102519 68 0 0.0 0.0 0.00 0.25 0.00 90 1021.2
20260901102029 68 0 0.0 0.0 0.00 0.25 0.00 90 1021.2
20260901101522 68 0 0.0 0.0 0.00 0.25 0.00 90 1021.2
20260901101019 68 0 0.0 0.0 0.00 0.25 0.00 90 1021.1
20260901100518 68 0 0.0 0.0 0.00 0.25 0.00 89 1021.2
20260901100019 68 0 0.0 0.0 0.00 0.25 0.00 88 1021.2
20260901095519 68 0 0.0 0.0 0.00 0.25 0.00 88 1021.2
20260901095019 68 0 0.0 0.0 0.00 0.25 0.00 88 1021.2
20260901094519 68 0 0.0 0.0 0.00 0.25 0.00 87 1021.1
20260901094025 68 0 0.0 0.0 0.00 0.25 0.00 87 1021.2
20260901093522 68 0 0.0 0.0 0.00 0.25 0.00 87 1021.2
20260901093029 68 0 0.0 0.0 0.00 0.25 0.00 86 1021.2
20260901092518 68 0 0.0 0.0 0.00 0.25 0.00 86 1021.2
20260901092019 68 0 0.0 0.0 0.00 0.25 0.00 86 1021.1
20260901091519 68 0 0.0 0.0 0.00 0.25 0.00 87 1021.1
20260901091019 68 0 0.0 0.0 0.00 0.25 0.00 87 1021.1
20260901090520 68 0 0.0 0.0 0.00 0.25 0.00 88 1021.1
20260901090018 68 0 0.0 0.0 0.00 0.25 0.00 88 1021.0
20260901085518 68 0 0.0 0.0 0.00 0.25 0.00 88 1021.0
20260901085018 69 0 0.0 0.0 0.00 0.25 0.00 88 1021.0
20260901084526 69 0 0.0 0.0 0.00 0.25 0.00 87 1021.0
20260901084018 69 0 0.0 0.0 0.00 0.25 0.00 87 1021.0
20260901083521 69 0 0.0 0.0 0.00 0.25 0.00 86 1021.1
20260901083019 69 0 0.0 0.0 0.00 0.25 0.00 86 1021.1
20260901082518 69 0 0.0 0.0 0.00 0.25 0.00 86 1021.1
20260901082019 69 0 0.0 0.0 0.00 0.25 0.00 85 1021.1
20260901081519 69 0 0.0 0.0 0.00 0.25 0.00 84 1021.1
20260901081019 69 0 0.0 0.0 0.00 0.25 0.00 82 1021.2
20260901080538 69 0 0.0 0.0 0.00 0.25 0.00 81 1021.2
20260901080022 69 0 0.0 0.0 0.00 0.25 0.00 81 1021.2
20260901075519 69 0 0.0 0.0 0.00 0.25 0.00 82 1021.1
20260901075029 69 0 0.0 0.0 0.00 0.25 0.00 82 1021.2
20260901074504 69 0 0.0 0.0 0.00 0.25 0.00 83 1021.2
20260901074001 69 0 0.0 0.0 0.00 0.25 0.00 84 1021.2
20260901073501 69 0 0.0 0.0 0.00 0.25 0.00 85 1021.3
20260901073017 69 0 0.0 0.0 0.00 0.25 0.00 87 1021.4
20260901072501 69 0 0.0 0.0 0.00 0.25 0.00 87 1021.3
20260901072005 69 0 0.0 0.0 0.00 0.25 0.00 87 1021.4
20260901071348 69 0 0.0 0.0 0.00 0.25 0.00 87 1021.5
20260901070856 69 0 0.0 0.0 0.00 0.25 0.00 86 1021.6
20260901070352 69 0 0.0 0.0 0.00 0.25 0.00 86 1021.7
20260901065900 69 0 0.0 0.0 0.00 0.25 0.00 86 1021.7
20260901065348 69 0 0.0 0.0 0.00 0.25 0.00 86 1021.8
20260901064725 69 0 0.0 0.0 0.00 0.25 0.00 86 1021.7
20260901064224 69 0 0.0 0.0 0.00 0.25 0.00 86 1021.7
20260901063724 69 0 0.0 0.0 0.00 0.25 0.00 87 1021.7
20260901063224 69 0 0.0 0.0 0.00 0.25 0.00 86 1021.8
20260901062724 70 0 0.0 0.0 0.00 0.25 0.00 86 1021.8
20260901062224 70 0 0.0 1.0 0.00 0.25 0.00 86 1021.8
20260901061731 70 0 0.0 1.0 0.00 0.25 0.00 85 1021.9
20260901061224 70 0 0.0 0.0 0.00 0.25 0.00 85 1021.9
20260901060724 70 0 0.0 0.0 0.00 0.25 0.00 85 1021.9
20260901060226 70 0 0.0 0.0 0.00 0.25 0.00 84 1022.0
20260901055724 70 0 0.0 0.0 0.00 0.25 0.00 84 1022.0
20260901055224 70 0 0.0 0.0 0.00 0.25 0.00 85 1022.1
20260901054724 70 0 0.0 0.0 0.00 0.25 0.00 85 1022.0
20260901054224 70 0 0.0 0.0 0.00 0.25 0.00 84 1022.1
20260901053725 70 0 0.0 0.0 0.00 0.25 0.00 84 1022.2
20260901052811 70 0 0.0 2.0 0.00 0.25 0.00 84 1022.2
20260901052312 70 0 0.0 3.0 0.00 0.25 0.00 84 1022.2
20260901051817 70 0 0.0 3.0 0.00 0.25 0.00 84 1022.2
20260901051311 70 0 0.0 0.0 0.00 0.25 0.00 84 1022.2
20260901050811 70 0 0.0 0.0 0.00 0.25 0.00 84 1022.2
20260901050312 70 0 0.0 0.0 0.00 0.25 0.00 84 1022.2
20260901045811 70 0 0.0 1.0 0.00 0.25 0.00 84 1022.1
20260901045311 70 0 0.0 1.0 0.00 0.25 0.00 84 1022.1
20260901044811 70 0 0.0 1.0 0.00 0.25 0.00 84 1022.1
20260901044321 70 0 0.0 2.0 0.00 0.25 0.00 84 1022.1
20260901043821 70 0 0.0 2.0 0.00 0.25 0.00 85 1022.1
20260901043321 70 0 0.0 2.0 0.00 0.25 0.00 85 1022.2
20260901042811 70 0 0.0 2.0 0.00 0.25 0.00 85 1022.2
20260901042312 70 0 0.0 2.0 0.00 0.25 0.00 85 1022.2
20260901041811 70 0 0.0 2.0 0.00 0.25 0.00 85 1022.2
20260901041312 70 0 0.0 4.0 0.00 0.25 0.00 85 1022.2
20260901040820 70 54 1.0 4.0 0.00 0.25 0.00 86 1022.2
20260901040311 70 0 0.0 2.0 0.00 0.25 0.00 86 1022.1
20260901035811 69 0 0.0 3.0 0.00 0.25 0.00 86 1022.1
20260901035311 69 0 0.0 3.0 0.00 0.25 0.00 86 1022.1
20260901034813 69 0 0.0 2.0 0.00 0.25 0.26 86 1022.0
20260901034313 69 0 0.0 3.0 0.00 0.25 0.26 86 1022.1
20260901033822 69 0 0.0 3.0 0.00 0.25 0.26 87 1022.0
20260901033311 69 0 0.0 2.0 0.00 0.25 0.26 87 1021.9
20260901032811 69 0 0.0 3.0 0.00 0.25 0.26 86 1022.1
20260901032311 70 55 1.0 3.0 0.00 0.25 0.26 86 1022.0
20260901031747 70 0 0.0 2.0 0.00 0.25 0.26 86 1021.9
20260901031247 70 0 0.0 3.0 0.00 0.25 0.26 85 1021.9
20260901030747 70 0 0.0 3.0 0.00 0.25 0.26 85 1021.9
20260901030312 69 0 0.0 2.0 0.00 0.25 0.26 85 1022.1
20260901025747 69 0 0.0 2.0 0.00 0.25 0.26 86 1022.0
20260901025254 69 0 0.0 2.0 0.00 0.25 0.26 85 1021.9
20260901024747 69 55 1.0 3.0 0.00 0.25 0.26 87 1022.0
20260901024247 69 0 0.0 3.0 0.00 0.25 0.26 87 1022.0
20260901023747 69 0 0.0 3.0 0.00 0.25 0.26 87 1022.1
20260901023247 69 67 1.0 5.0 0.00 0.25 0.26 87 1022.2
20260901022807 69 65 1.0 5.0 0.00 0.25 0.26 87 1022.1
20260901022247 69 57 1.0 3.0 0.00 0.25 0.26 88 1022.1
20260901021748 69 57 1.0 3.0 0.00 0.25 0.26 88 1022.0
20260901020848 69 58 1.0 5.0 0.00 0.25 0.26 88 1021.9
20260901020348 69 40 1.0 5.0 0.00 0.25 0.26 89 1022.0
20260901015848 69 42 1.0 4.0 0.00 0.25 0.26 90 1021.9
20260901015348 69 42 1.0 4.0 0.00 0.25 0.26 91 1021.7
20260901014630 69 43 1.0 4.0 0.00 0.25 0.26 91 1021.7
20260901013931 69 45 1.0 3.0 0.00 0.25 0.26 92 1021.8
20260901013432 69 51 1.0 4.0 0.00 0.25 0.26 92 1021.6
20260901013013 69 52 1.0 4.0 0.00 0.25 0.26 93 1021.5
20260901012436 69 48 1.0 4.0 0.00 0.25 0.26 93 1021.5
20260901011932 68 40 2.0 4.0 0.00 0.25 0.26 93 1021.5
20260901011432 69 35 1.0 4.0 0.00 0.25 0.26 94 1021.4
20260901010934 69 35 1.0 4.0 0.00 0.25 0.26 94 1021.4
20260901010431 69 30 1.0 3.0 0.00 0.25 0.26 94 1021.4
20260901005933 69 30 1.0 3.0 0.00 0.25 0.26 94 1021.3
20260901005432 69 30 1.0 3.0 0.00 0.25 0.26 94 1021.3
20260901004546 69 30 1.0 3.0 0.03 0.25 0.26 93 1021.3
20260901004038 69 30 1.0 3.0 0.09 0.25 0.26 93 1021.3
20260901003541 69 37 1.0 5.0 0.25 0.25 0.26 93 1021.2
20260901003037 70 37 2.0 6.0 0.25 0.25 0.26 93 1021.2
20260901002537 70 40 2.0 6.0 0.25 0.25 0.26 92 1021.1
20260901002037 70 17 1.0 5.0 0.25 0.25 0.26 92 1021.1
20260901001540 70 32 1.0 5.0 0.25 0.25 0.26 92 1021.1
20260901001037 70 29 1.0 3.0 0.25 0.25 0.26 92 1021.1
20260901000537 71 0 0.0 2.0 0.25 0.25 0.26 91 1021.1
20260901000044 71 0 0.0 2.0 0.25 0.25 0.26 90 1021.1
20260831235538 72 0 0.0 4.0 0.25 0.25 0.26 88 1021.1
20260831235037 73 26 1.0 4.0 0.24 0.24 0.25 86 1021.1
20260831234540 74 307 1.0 3.0 0.22 0.22 0.23 83 1021.1